This is the latest recevied weather packets stored in our database for station/object KD0MAC. If no packets are shown the sender has not sent any weather packets the latest 10 day(s).
| Time | Temp. | Humidity | Pressure | Rain* | Wind** | Luminosity | Snow |
|---|---|---|---|---|---|---|---|
| 1788552276 | 37.78° C | 34% | 1011.5 hPa | 0 mm | - | 526 W/m² | - |
| 1788552224 | 37.78° C | 34% | 1011.5 hPa | 0 mm | - | 526 W/m² | - |
| 1788551925 | 39.44° C | 32% | 1011.5 hPa | 0 mm | - | 457 W/m² | - |
| 1788551675 | 38.89° C | 32% | 1011.5 hPa | 0 mm | - | 544 W/m² | - |
| 1788551624 | 38.89° C | 32% | 1011.5 hPa | 0 mm | - | 544 W/m² | - |
| 1788551325 | 38.89° C | 33% | 1011.5 hPa | 0 mm | - | 541 W/m² | - |
| 1788551025 | 37.78° C | 35% | 1011.5 hPa | 0 mm | - | 385 W/m² | - |
| 1788550724 | 38.89° C | 35% | 1011.5 hPa | 0 mm | - | 368 W/m² | - |
| 1788550475 | 38.33° C | 34% | 1011.9 hPa | 0 mm | - | 525 W/m² | - |
| 1788550426 | 38.33° C | 34% | 1011.9 hPa | 0 mm | - | 525 W/m² | - |
| 1788550176 | 38.33° C | 34% | 1011.9 hPa | 0 mm | - | 559 W/m² | - |
| 1788550125 | 38.33° C | 34% | 1011.9 hPa | 0 mm | - | 559 W/m² | - |
| 1788549876 | 38.33° C | 34% | 1011.9 hPa | 0 mm | - | 558 W/m² | - |
| 1788549825 | 38.33° C | 34% | 1011.9 hPa | 0 mm | - | 558 W/m² | - |
| 1788549575 | 37.78° C | 37% | 1011.9 hPa | 0 mm | - | 558 W/m² | - |
| 1788549544 | 37.78° C | 37% | 1011.9 hPa | 0 mm | - | 558 W/m² | - |
| 1788549275 | 37.78° C | 35% | 1011.9 hPa | 0 mm | - | 344 W/m² | - |
| 1788548978 | 37.78° C | 34% | 1011.9 hPa | 0 mm | - | 555 W/m² | - |
| 1788548675 | 37.78° C | 36% | 1011.9 hPa | 0 mm | - | 545 W/m² | - |
| 1788548376 | 37.78° C | 38% | 1011.9 hPa | 0 mm | - | 543 W/m² | - |
| 1788548325 | 37.78° C | 38% | 1011.9 hPa | 0 mm | - | 543 W/m² | - |
| 1788548075 | 37.22° C | 39% | 1011.9 hPa | 0 mm | - | 541 W/m² | - |
| 1788548024 | 37.22° C | 39% | 1011.9 hPa | 0 mm | - | 541 W/m² | - |
| 1788547724 | 37.22° C | 38% | 1012.2 hPa | 0 mm | - | 545 W/m² | - |
| 1788547475 | 37.22° C | 39% | 1012.2 hPa | 0 mm | - | 548 W/m² | - |
* Rain latest hour (hover to see other rain measurements)
** Current wind speed in m/s (hover to see current wind gust speed)